Terminal Aerodrome Forecast
Issued by NWS

Home | Current Version | Previous Version | Text Only | Print | Product List | Glossary On
Versions: 1 2 3 4 5 6 7 8 9 10 11 12 13 14 15 16 17 18 19 20 21 22 23 24 25 26 27 28 29 30
000
FTUS45 KGJT 231120
TAFASE
TAF
KASE 231120Z 2312/2412 15010KT P6SM FEW150
     FM231600 02005KT P6SM FEW150
     FM231900 32008G15KT P6SM SCT150
     FM232100 17010G20KT P6SM VCTS SCT090CB BKN150
      TEMPO 2321/2401 VRB20G30KT -TSRA SCT060 BKN090CB
     FM240400 19007KT P6SM VCSH SCT090 BKN150=

USA.gov is the U.S. government's official web portal to all federal, state and local government web resources and services.